www.pogodaiklimat.ru

Погода и климат >> Архив погоды >> Россия >> Шпицберген >> Баренцбург


АРХИВ ПОГОДЫ в Баренцбурге

Время (UTC), дата Ветер
(напр.,м/с)
 
Видим.   Явления Облачность Т
(С)
Тd
(С)
f
(%)
Тe
(С)
Тes
(С)
Комфортность P
(гПа)
Po
(гПа)
Тmin
(С)
Tmax
(С)
R
(мм)
R24
(мм)
S
(см)
12 13.07 Ю 4 20 км 10/10 300 м
[St]
+5.3 +2.2 80 +1 +1 прохладно 1016.3 1006.9
15 13.07 Ю 4 20 км слаб. морось 10/10 300 м
[St]
+5.6 +3.4 86 +2 +2 по сезону 1015.9 1006.5 0.0
18 13.07 Ю 4 10 км в посл. час морось 10/10 200 м
[St]
+4.5 +1.9 83 0 0 прохладно 1016.0 1006.5 +6.1 0.0
21 13.07 ЮЗ 2 10 км 9/9 200 м
[St]
+3.1 +1.0 86 0 0 прохладно 1016.2 1006.7
00 14.07 Ю 1 20 км 9/9 300 м
[St]
+3.4 +0.6 82 +2 +2 по сезону 1016.6 1007.1
03 14.07 СЗ 2 50 км 9/9 300 м
[St]
+4.0 +1.3 83 +1 +1 по сезону 1016.5 1007.1 +2.7 0.0
06 14.07 З 1 50 км 9/9 300 м
[St]
+5.1 +1.3 76 +4 +4 по сезону 1016.6 1007.2 +2.7
09 14.07 СЗ 3 20 км 8/8 300 м
[St]
+6.1 +3.0 80 +3 +4 по сезону 1017.0 1007.6
12 14.07 СЗ 4 20 км 9/9 200 м
[St]
+6.1 +4.0 86 +2 +3 прохладно 1017.1 1007.7
15 14.07 СЗ 3 20 км 9/9 200 м
[St]
+6.6 +3.8 82 +4 +4 по сезону 1017.3 1007.9
18 14.07 СЗ 1 20 км 9/9 200 м
[St]
+5.2 +3.5 89 +4 +4 по сезону 1017.3 1007.9 +6.9
21 14.07 З 1 20 км 9/8 200 м
[St Ac trans]
+5.5 +3.2 85 +4 +4 по сезону 1017.4 1008.0
00 15.07 З 2 20 км 10/10 200 м
[St]
+4.7 +3.1 89 +2 +2 по сезону 1017.5 1008.1
03 15.07 З 1 20 км 10/10 200 м
[St]
+4.9 +3.0 87 +4 +4 по сезону 1017.5 1008.1 +4.7
06 15.07 Ю 3 20 км 10/10 300 м
[St]
+5.3 +2.8 84 +2 +2 по сезону 1017.5 1008.1 +4.7
09 15.07 СЗ 2 20 км 9/9 300 м
[St]
+5.8 +3.3 84 +3 +4 по сезону 1017.7 1008.3
12 15.07 СЗ 3 50 км 4/3 300 м
[St Ac trans Ci fib]
+6.2 +2.8 79 +3 +7 по сезону 1017.8 1008.4
15 15.07 СЗ 2 50 км 8/5 600 м
[Sc Ac trans Ci fib]
+7.3 +2.4 71 +5 +7 по сезону 1017.8 1008.5
18 15.07 С 3 20 км 9/8 600 м
[Sc Ac trans Ci fib]
+6.7 +2.9 77 +4 +4 по сезону 1018.0 1008.6 +7.8
21 15.07 С 3 20 км 10/9 600 м
[Sc Ac trans]
+6.1 +3.2 82 +3 +3 по сезону 1018.4 1009.0
00 16.07 Ю 2 20 км слаб. морось 10/10 300 м
[St]
+5.8 +4.7 93 +3 +3 по сезону 1018.9 1009.5
03 16.07 Ю 2 4000 м слаб. морось 10/10 200 м
[St]
+5.4 +4.4 93 +3 +3 по сезону 1019.2 1009.8 +5.3 0.1
06 16.07 ЮВ 5 50 км в посл. час ливневой дождь {морось} 9/9 600 м
[Cb cap]
+6.1 +3.3 82 +2 +2 по сезону 1019.6 1010.2 +5.3 0.5
09 16.07 Ю 3 20 км 9/9 300 м
[St]
+6.6 +3.0 78 +4 +4 по сезону 1020.2 1010.8
12 16.07 ЮЗ 3 20 км в посл. час ливневой дождь 9/9 600 м
[Cb cap]
+6.7 +2.1 72 +4 +4 по сезону 1020.9 1011.5
15 16.07 ЮЗ 3 20 км слаб. ливневой дождь 9/9 300 м
[Cb cap]
+6.0 +2.3 77 +3 +3 по сезону 1021.5 1012.1 0.4
18 16.07 ЮЗ 2 20 км {ливн. осадки} 10/10 300 м
[Cb cap]
+5.6 +1.9 77 +3 +3 по сезону 1022.1 1012.6 +7.5 0.0
21 16.07 З 1 20 км 10/10 600 м
[Cb cap]
+5.5 +2.2 79 +4 +4 по сезону 1022.6 1013.2
00 17.07 ЮВ 3 50 км 10/10 600 м
[Sc]
+5.0 +1.0 75 +2 +2 по сезону 1023.2 1013.7
03 17.07 Ю 3 50 км 10/10 600 м
[Sc]
+4.9 +0.3 72 +2 +2 по сезону 1023.0 1013.5 +4.7 0.0
06 17.07 Ю 4 50 км 10/10 600 м
[Sc]
+5.6 +1.0 72 +2 +2 по сезону 1022.2 1012.7 +4.7 0.0
09 17.07 Ю 1 50 км 10/10 600 м
[Sc]
+5.9 +1.0 71 +5 +5 по сезону 1021.9 1012.5
12 17.07 С 4 50 км 10/10 600 м
[Sc]
+5.0 +1.6 79 +1 +1 прохладно 1020.9 1011.4
15 17.07 СЗ 3 50 км 10/10 600 м
[Sc]
+5.6 +1.9 77 +2 +2 прохладно 1019.3 1009.9
18 17.07 СЗ 3 50 км 10/10 600 м
[Sc]
+5.6 +2.0 78 +2 +2 прохладно 1017.3 1007.9 +6.0
21 17.07 СЗ 2 50 км 10/10 600 м
[Sc]
+5.6 +1.9 77 +3 +3 по сезону 1015.0 1005.6
00 18.07 СЗ 2 50 км 9/9 600 м
[Sc]
+4.9 +1.3 77 +2 +3 по сезону 1012.9 1003.5
03 18.07 СЗ 2 50 км 9/9 300 м
[St]
+5.0 +1.7 79 +2 +3 по сезону 1010.4 1001.1 +4.7
06 18.07 З 2 50 км 10/10 300 м
[St]
+5.2 +2.3 82 +3 +3 по сезону 1008.4 999.1 +4.7
09 18.07 З 4 50 км 9/9 600 м
[Cb cap]
+5.2 +2.0 80 +1 +2 прохладно 1007.5 998.2
12 18.07 ЮЗ 4 50 км 10/10 600 м
[Sc]
+5.1 +1.8 79 +1 +1 прохладно 1008.3 999.0
15 18.07 Ю 2 20 км слаб. морось 9/9 300 м
[St]
+5.7 +2.4 79 +3 +4 по сезону 1008.9 999.6 0.0
18 18.07 ЮЗ 3 4000 м слаб. ливневой дождь {морось} 9/9 300 м
[Cb cap]
+4.9 +3.6 91 +1 +1 прохладно 1010.4 1001.0 +6.4 0.3
21 18.07 ЮЗ 3 10 км слаб. ливневой дождь 9/9 300 м
[Cb cap]
+4.0 +1.8 86 0 0 прохладно 1012.5 1003.1
00 19.07 Ю 4 20 км слаб. ливневой дождь 10/10 300 м
[Cb cap]
+4.5 +1.7 82 0 0 прохладно 1014.1 1004.7
03 19.07 Ю 5 20 км слаб. ливневой дождь 10/10 300 м
[Cb cap]
+4.8 +2.9 87 0 0 прохладно 1014.8 1005.4 +3.8 0.4
06 19.07 Ю 7 20 км слаб. ливневой дождь 10/10 300 м
[Cb cap]
+5.0 +4.0 93 -1 -1 прохладно 1015.1 1005.7 +3.8 0.2
09 19.07 Ю 7-9
{10}
20 км слаб. ливневой дождь 10/10 300 м
[Cb cap]
+6.5 +4.3 86 +2 +2 по сезону 1015.1 1005.7
12 19.07 Ю 6-8
{10}
10 км слаб. ливневой дождь 10/10 300 м
[Cb cap]
+6.8 +4.4 85 +2 +2 прохладно 1015.3 1005.9
15 19.07 Ю 5 20 км слаб. ливневой дождь 10/10 300 м
[Cb cap]
+6.6 +4.6 87 +2 +2 прохладно 1015.1 1005.7 0.6
18 19.07 Ю 6 20 км {ливн. осадки} 10/10 300 м
[Cb cap]
+6.7 +4.2 84 +2 +2 прохладно 1014.3 1005.0 +7.4 0.5
21 19.07 ЮВ 5 20 км 10/10 600 м
[Sc]
+6.1 +3.5 83 +2 +2 по сезону 1014.3 1004.9
00 20.07 ЮВ 2 20 км 10/10 600 м
[Sc]
+5.9 +3.4 84 +3 +3 по сезону 1014.2 1004.8
03 20.07 Ю 1 20 км в посл. час дождь 10/3 600 м
[Sc As op]
+5.9 +3.4 84 +5 +5 по сезону 1013.6 1004.2 +5.5 0.0
06 20.07 Ю 2 20 км в посл. час ливневой дождь 9/9 600 м
[Cb cap]
+6.1 +3.4 83 +4 +4 по сезону 1013.3 1004.0 +5.5 0.4
09 20.07 ЮВ 3 10 км слаб. ливневой дождь 10/10 300 м
[Cb cap]
+6.1 +4.0 86 +3 +3 по сезону 1013.2 1003.9

 

Местоположение метеостанции Баренцбург (Шпицберген, Россия): широта 78.07 долгота 14.25 высота над уровнем моря 75 м.

В архиве по умолчанию представлена погода в Баренцбурге за последнюю неделю. Архивные данные за месяц целиком и за предыдущие месяцы, начиная с января 2011 года, Вы можете получить, выбрав интересующий диапазон дат из раскрывающегося списка и нажав кнопку "Ввод!".


*Определитесь, кто Вы:
робот инопланетянин человек

Внимание! Время в таблицах - всемирное. Для получения местного времени необходимо прибавить поправку, которая равна 1 ч.

Смотрите также архив погоды в соседних городах и на ближайших метеорологических станциях:

Погода в Свальбард аэропорту (Норвегия) (35 км)
Погода на Акселойа (Норвегия) (45 км)
Погода в Пирамиде (Норвегия) (81 км)
Погода в Ню-Олесунн (Норвегия) (108 км)
Погода на Хорнсунне (Норвегия) (123 км)
Погода на Сёркаппёйа (Норвегия) (186 км)
Погода на Эдже (Норвегия) (196 км)
Погода на Верлегенхукен (Норвегия) (224 км)
Погода в Хопене (Норвегия) (315 км)
Погода на Конгсёйа (Норвегия) (337 км)

Пояснения к столбцам:

Ветер - указаны скорость ветра в м/с - средняя за 10 мин, порывы в срок и между сроками (в фигурных скобках) и направление, откуда дует ветер: С - северный, СВ - северо-восточный, В - восточный, ЮВ - юго-восточный, Ю - южный, ЮЗ - юго-западный, З - западный, СЗ - северо-западный.
Видимость - горизонтальная дальность видимости в метрах или километрах. При видимости от 1 до 10 км при отсутствии осадков обычно наблюдается дымка, при ухудшении видимости до 1 км и менее - туман. В сухую погоду видимость может ухудшаться дымом, пылью или мглою.
Явления - указаны атмосферные явления, наблюдавшиеся в срок или в последний час перед сроком; фигурными скобками обозначены явления, наблюдавшиеся между сроками (за 1-3 часа до срока); квадратными скобками обозначены град или гололедные отложения с указанием их диаметра в мм.
Облачность - указаны через наклонную черту общая и нижняя облачность в баллах и высота нижней границы облаков в метрах; квадратными скобками обозначены формы облаков: Ci - перистые, Cs - перисто-слоистые, Cc - перисто-кучевые, Ac - высококучевые, As - высокослоистые, Sc - слоисто-кучевые, Ns - слоисто-дождевые, Cu - кучевые, Cb - кучево-дождевые. Подробнее классификацию облаков см. в Атласе облаков (PDF).
T - Температура воздуха - температура, измеренная на высоте 2 м над землей.
Td - Температура точки росы - температура, при понижении до которой содержащийся в воздухе водяной пар достигнет насыщения.
f - Относительная влажность воздуха - влажноcть воздуха, измеренная на высоте 2 м над землей.
Te - Эффективная температура - температура, которую ощущает одетый по сезону человек в тени. Характеристика душности погоды. При расчете учитывается влияние влажности воздуха и скорости ветра на теплоощущения человека.
Tes - Эффективная температура на солнце - температура, которую ощущает человек, с поправкой на солнечный нагрев. Характеристика знойности погоды. Зависит от высоты солнца над горизонтом, облачности и скорости ветра. Ночью, в пасмурную погоду, а также при ветре 12 м/с и более поправка равна нулю.
P - Атмосферное давление - приведенное к уровню моря атмосферное давление.
Po - Атмосферное давление - измеренное на уровне метеостанции атмосферное давление.
Tmin - Минимальная температура - минимум температуры воздуха на высоте 2 м над землей.
Tmax - Максимальная температура - максимум температуры воздуха на высоте 2 м над землей.
R - Количество осадков - Количество выпавших осадков за период времени, мм. При наведении курсора мыши на число - период времени, за который выпало указанное количество осадков.
R24 - Количество осадков - Количество выпавших осадков за 24 часа, мм.
S - Снежный покров - Высота снежного покрова, см. При наведении курсора мыши на число - состояние снежного покрова и степень покрытия местности в баллах.